Location: Bryzozowice
(50.3667°N, 18.9667°E)
Time: 21:28:07
(UTC+00:00)

BREEZE-M DEB (TANK) - Pass Details

Date: 24 January 2020
Orbit: 331 x 16731 km, 49.4° (Epoch: 25 February)

Event Time Altitude Azimuth Distance (km) Brightness Sun altitude
Rises 18:21:50 0° 280° (W) 9,163 10.2 -28.2°
Reaches altitude 10° 18:30:40 10° 280° (W) 5,840 8.9 -29.6°
Enters shadow 18:42:15 68° 231° (SW) 1,022 4.1 -31.5°
